User: anonymous   Login
Location: Unspecified
(0.0000°N, 0.0000°E)
Time: 03:47:37
(UTC+00:00)
Language:

Hipparcos - Orbit

View from above orbital plane
View from above orbital plane
View from above satellite
View from above satellite

Ground track
Ground track

The orbit data is extracted from the following two-line orbital elements,

1 20169U 89062B   19115.18690493 -.00000098 +00000-0 +77726-3 0  9990
2 20169 006.7335 251.7633 7193383 151.9431 280.1779 02.26157184210327
Epoch (UTC): 25 April 2019 04:29:08
Eccentricity: 0.7193383
inclination: 6.7335°
perigee height: 503 km
apogee height: 35774 km
right ascension of ascending node: 251.7633°
argument of perigee: 151.9431°
revolutions per day: 2.26157184
mean anomaly at epoch: 280.1779°
orbit number at epoch: 21032

The dashed part of the orbit path shows where the satellite is in the earth's shadow,  

DLR